When you browse on this site, cookies collect data to enhance your experience and personalize the content and advertising you see.
Visit our Privacy Policy to learn more. By continuing to use the site, you agree to this use of cookies and data.
  • In France
  • List of Countries
  • For 7 days
  • Water Temperature
  • Satellite Maps
  • Weather Map
  • Weather Widgets
  • user-avatar
    Login

    Hourly Weather Córdoba

    Today, 16 November, Friday

    Time Temperature Precipitation Wind Pressure Humidity
    00:00 +21°C° 0 mm 5 mps 723 mmHg 65%
    01:00 +20°C° 0 mm 5 mps 723 mmHg 68%
    02:00 +17°C° 0 mm 5 mps 724 mmHg 68%
    03:00 +17°C° 0 mm 5 mps 724 mmHg 69%
    04:00 +17°C° 0 mm 4 mps 724 mmHg 71%
    05:00 +15°C° 0 mm 4 mps 724 mmHg 72%
    06:00 +18°C° 0 mm 3 mps 724 mmHg 70%
    07:00 +19°C° 0 mm 3 mps 724 mmHg 68%
    08:00 +20°C° 0 mm 3 mps 724 mmHg 66%
    09:00 +21°C° 0 mm 3 mps 724 mmHg 61%
    10:00 +24°C° 0 mm 3 mps 724 mmHg 57%
    11:00 +26°C° 0 mm 3 mps 723 mmHg 53%
    12:00 +27°C° 0 mm 4 mps 723 mmHg 50%
    13:00 +29°C° 0 mm 5 mps 722 mmHg 48%
    14:00 +30°C° 0 mm 5 mps 721 mmHg 46%
    15:00 +30°C° 0 mm 6 mps 721 mmHg 47%
    16:00 +29°C° 0 mm 6 mps 720 mmHg 48%
    17:00 +29°C° 0 mm 6 mps 719 mmHg 49%
    18:00 +28°C° 0 mm 5 mps 719 mmHg 55%
    19:00 +26°C° 0 mm 4 mps 719 mmHg 61%
    20:00 +25°C° 0 mm 4 mps 719 mmHg 67%
    21:00 +24°C° 0 mm 3 mps 719 mmHg 69%
    22:00 +22°C° 0 mm 3 mps 720 mmHg 71%
    23:00 +23°C° 0 mm 2 mps 720 mmHg 73%

    Tomorrow, 17 November, Saturday

    Time Temperature Precipitation Wind Pressure Humidity
    00:00 +23°C° 0 mm 2 mps 719 mmHg 73%
    01:00 +21°C° 0 mm 2 mps 719 mmHg 73%
    02:00 +21°C° 0 mm 2 mps 718 mmHg 73%
    03:00 +21°C° 0.1 mm 2 mps 718 mmHg 73%
    04:00 +20°C° 0.1 mm 2 mps 717 mmHg 73%
    05:00 +20°C° 0.1 mm 2 mps 717 mmHg 74%
    06:00 +24°C° 0.1 mm 3 mps 717 mmHg 67%
    07:00 +26°C° 0.1 mm 4 mps 718 mmHg 60%
    08:00 +28°C° 0.1 mm 5 mps 718 mmHg 54%
    09:00 +30°C° 0 mm 5 mps 719 mmHg 47%
    10:00 +33°C° 0 mm 6 mps 719 mmHg 40%
    11:00 +36°C° 0 mm 6 mps 719 mmHg 33%
    12:00 +34°C° 0.2 mm 7 mps 719 mmHg 40%
    13:00 +32°C° 0.2 mm 8 mps 719 mmHg 47%
    14:00 +29°C° 0.2 mm 9 mps 719 mmHg 54%
    15:00 +28°C° 0 mm 8 mps 719 mmHg 51%
    16:00 +27°C° 0 mm 8 mps 720 mmHg 49%
    17:00 +27°C° 0 mm 8 mps 720 mmHg 46%
    18:00 +24°C° 0 mm 7 mps 721 mmHg 46%
    19:00 +22°C° 0 mm 6 mps 722 mmHg 46%
    20:00 +21°C° 0 mm 6 mps 723 mmHg 46%
    21:00 +20°C° 0 mm 5 mps 724 mmHg 43%
    22:00 +19°C° 0 mm 5 mps 724 mmHg 40%
    23:00 +17°C° 0 mm 5 mps 725 mmHg 38%

    Day after tomorrow, 18 November, Sunday

    Time Temperature Precipitation Wind Pressure Humidity
    00:00 +17°C° 0 mm 5 mps 725 mmHg 36%
    01:00 +17°C° 0 mm 4 mps 725 mmHg 35%
    02:00 +17°C° 0 mm 3 mps 725 mmHg 33%
    03:00 +16°C° 0 mm 3 mps 725 mmHg 33%
    04:00 +16°C° 0 mm 3 mps 725 mmHg 33%
    05:00 +15°C° 0 mm 2 mps 726 mmHg 33%
    06:00 +17°C° 0 mm 2 mps 726 mmHg 32%
    07:00 +18°C° 0 mm 2 mps 727 mmHg 30%
    08:00 +20°C° 0 mm 2 mps 727 mmHg 29%
    09:00 +23°C° 0 mm 2 mps 728 mmHg 27%
    10:00 +24°C° 0 mm 2 mps 728 mmHg 25%
    11:00 +26°C° 0 mm 2 mps 728 mmHg 23%
    12:00 +26°C° 0 mm 3 mps 727 mmHg 23%
    13:00 +27°C° 0 mm 3 mps 726 mmHg 23%
    14:00 +28°C° 0 mm 4 mps 726 mmHg 23%
    15:00 +27°C° 0 mm 4 mps 725 mmHg 25%
    16:00 +27°C° 0 mm 5 mps 725 mmHg 28%
    17:00 +26°C° 0 mm 5 mps 724 mmHg 30%
    18:00 +23°C° 0 mm 5 mps 724 mmHg 35%
    19:00 +21°C° 0 mm 4 mps 725 mmHg 40%
    20:00 +19°C° 0 mm 3 mps 725 mmHg 45%
    21:00 +19°C° 0 mm 3 mps 725 mmHg 45%
    22:00 +18°C° 0 mm 3 mps 725 mmHg 45%
    23:00 +18°C° 0 mm 3 mps 726 mmHg 46%

    19 November, Monday

    Time Temperature Precipitation Wind Pressure Humidity
    00:00 +17°C° 0 mm 3 mps 725 mmHg 47%
    01:00 +17°C° 0 mm 3 mps 724 mmHg 48%
    02:00 +17°C° 0 mm 3 mps 724 mmHg 49%
    03:00 +16°C° 0 mm 3 mps 724 mmHg 49%
    04:00 +16°C° 0 mm 3 mps 724 mmHg 50%
    05:00 +16°C° 0 mm 3 mps 723 mmHg 51%
    06:00 +18°C° 0 mm 4 mps 724 mmHg 48%
    07:00 +20°C° 0 mm 4 mps 724 mmHg 45%
    08:00 +22°C° 0 mm 5 mps 725 mmHg 41%
    09:00 +24°C° 0 mm 6 mps 725 mmHg 39%
    10:00 +26°C° 0 mm 6 mps 725 mmHg 37%
    11:00 +28°C° 0 mm 6 mps 724 mmHg 35%
    12:00 +29°C° 0 mm 6 mps 724 mmHg 34%
    13:00 +29°C° 0 mm 7 mps 723 mmHg 34%
    14:00 +30°C° 0 mm 7 mps 722 mmHg 33%
    15:00 +30°C° 0 mm 7 mps 722 mmHg 35%
    16:00 +29°C° 0 mm 6 mps 722 mmHg 36%
    17:00 +29°C° 0 mm 6 mps 721 mmHg 37%
    18:00 +27°C° 0 mm 5 mps 721 mmHg 42%
    19:00 +25°C° 0 mm 4 mps 722 mmHg 47%
    20:00 +22°C° 0 mm 3 mps 722 mmHg 52%
    21:00 +21°C° 0 mm 3 mps 723 mmHg 54%
    22:00 +20°C° 0 mm 3 mps 723 mmHg 55%
    23:00 +20°C° 0 mm 3 mps 723 mmHg 56%

    20 November, Tuesday

    Time Temperature Precipitation Wind Pressure Humidity
    00:00 +20°C° 0 mm 3 mps 723 mmHg 57%
    01:00 +19°C° 0 mm 3 mps 723 mmHg 57%
    02:00 +19°C° 0 mm 3 mps 722 mmHg 58%
    03:00 +19°C° 0 mm 3 mps 723 mmHg 58%
    04:00 +18°C° 0 mm 3 mps 723 mmHg 58%
    05:00 +18°C° 0 mm 3 mps 723 mmHg 59%
    06:00 +20°C° 0 mm 3 mps 723 mmHg 54%
    07:00 +22°C° 0 mm 4 mps 724 mmHg 49%
    08:00 +25°C° 0 mm 4 mps 724 mmHg 45%
    09:00 +27°C° 0 mm 5 mps 724 mmHg 42%
    10:00 +29°C° 0 mm 5 mps 724 mmHg 40%
    11:00 +30°C° 0 mm 5 mps 724 mmHg 37%
    12:00 +32°C° 0 mm 6 mps 724 mmHg 36%
    13:00 +33°C° 0 mm 6 mps 723 mmHg 35%
    14:00 +34°C° 0 mm 6 mps 723 mmHg 34%
    15:00 +33°C° 0 mm 6 mps 722 mmHg 35%
    16:00 +33°C° 0 mm 6 mps 722 mmHg 36%
    17:00 +32°C° 0 mm 6 mps 721 mmHg 37%
    18:00 +29°C° 0 mm 5 mps 721 mmHg 41%
    19:00 +27°C° 0 mm 4 mps 722 mmHg 45%
    20:00 +24°C° 0 mm 3 mps 722 mmHg 49%
    21:00 +24°C° 0 mm 3 mps 722 mmHg 50%
    22:00 +22°C° 0 mm 3 mps 722 mmHg 50%
    23:00 +21°C° 0 mm 2 mps 722 mmHg 50%

    21 November, Wednesday

    Time Temperature Precipitation Wind Pressure Humidity
    00:00 +21°C° 0 mm 2 mps 722 mmHg 50%
    01:00 +21°C° 0 mm 2 mps 722 mmHg 50%
    02:00 +20°C° 0 mm 2 mps 721 mmHg 50%
    03:00 +20°C° 0 mm 2 mps 721 mmHg 51%
    04:00 +20°C° 0 mm 2 mps 721 mmHg 52%
    05:00 +20°C° 0 mm 2 mps 721 mmHg 53%
    06:00 +22°C° 0 mm 3 mps 721 mmHg 51%
    07:00 +25°C° 0 mm 4 mps 722 mmHg 48%
    08:00 +27°C° 0 mm 5 mps 722 mmHg 45%
    09:00 +29°C° 0 mm 5 mps 722 mmHg 42%
    10:00 +32°C° 0 mm 6 mps 721 mmHg 39%
    11:00 +34°C° 0 mm 7 mps 721 mmHg 36%
    12:00 +35°C° 0 mm 7 mps 720 mmHg 35%
    13:00 +36°C° 0 mm 7 mps 720 mmHg 34%
    14:00 +38°C° 0 mm 7 mps 719 mmHg 33%
    15:00 +36°C° 0 mm 7 mps 719 mmHg 34%
    16:00 +36°C° 0 mm 6 mps 718 mmHg 35%
    17:00 +36°C° 0 mm 6 mps 718 mmHg 37%
    18:00 +34°C° 0.1 mm 5 mps 719 mmHg 43%
    19:00 +30°C° 0.1 mm 4 mps 719 mmHg 49%
    20:00 +28°C° 0.1 mm 3 mps 719 mmHg 56%
    21:00 +27°C° 0.6 mm 3 mps 719 mmHg 61%
    22:00 +26°C° 0.6 mm 2 mps 720 mmHg 66%
    23:00 +25°C° 0.6 mm 1 mps 720 mmHg 71%
    Show more